EW7961 Weather Reports


Display with metric or nautical units.
time (UTC)temp
F
wind
direction
speed
MPH
gust
MPH
rain 1hr
in
rain 24hr
in
rain mn
in
humidity
%
barometer
mb
20260509231019 87 266 3.0 4.0 0.00 0.36 0.00 36 1008.4
20260509230019 86 275 2.0 3.0 0.00 0.36 0.00 37 1008.4
20260509225019 86 269 3.0 5.0 0.00 0.36 0.36 36 1008.3
20260509224017 86 271 3.0 8.0 0.00 0.36 0.36 36 1008.3
20260509223016 86 271 3.0 6.0 0.00 0.36 0.36 35 1008.4
20260509222020 85 274 3.0 6.0 0.00 0.36 0.36 36 1008.4
20260509221101 85 266 2.0 5.0 0.00 0.36 0.36 35 1008.4
20260509220020 85 268 3.0 7.0 0.00 0.36 0.36 35 1008.3
20260509215017 85 270 3.0 5.0 0.00 0.36 0.36 36 1008.4
20260509214017 84 265 3.0 7.0 0.00 0.36 0.36 36 1008.5
20260509213018 84 270 3.0 7.0 0.00 0.36 0.36 37 1008.5
20260509212018 84 274 3.0 8.0 0.00 0.36 0.36 38 1008.5
20260509211021 83 276 3.0 5.0 0.00 0.36 0.36 37 1008.6
20260509210058 83 266 3.0 6.0 0.00 0.36 0.36 38 1008.7
20260509205018 82 269 2.0 4.0 0.00 0.36 0.36 39 1008.7
20260509204018 82 261 3.0 9.0 0.00 0.36 0.36 37 1008.8
20260509203018 82 266 4.0 6.0 0.00 0.36 0.36 39 1008.9
20260509202018 81 267 2.0 4.0 0.00 0.36 0.36 42 1008.9
20260509201019 81 254 4.0 8.0 0.00 0.36 0.36 42 1009.0
20260509200018 80 258 3.0 7.0 0.00 0.36 0.36 43 1009.0
20260509195019 80 261 3.0 7.0 0.00 0.36 0.36 41 1009.0
20260509194019 80 253 3.0 8.0 0.00 0.36 0.36 42 1009.0
20260509193019 79 258 3.0 9.0 0.00 0.36 0.36 43 1009.1
20260509192018 79 271 3.0 7.0 0.00 0.36 0.36 44 1009.1
20260509191019 80 265 4.0 7.0 0.00 0.36 0.36 43 1009.3
20260509190016 80 261 3.0 8.0 0.00 0.36 0.36 46 1009.3
20260509185019 79 256 3.0 6.0 0.00 0.36 0.36 48 1009.3
20260509184019 79 270 3.0 6.0 0.00 0.36 0.36 47 1009.3
20260509183023 79 274 3.0 5.0 0.00 0.36 0.36 48 1009.2
20260509182020 78 270 3.0 6.0 0.00 0.36 0.36 48 1009.2
20260509181020 77 260 3.0 7.0 0.00 0.36 0.36 49 1009.3
20260509180017 77 252 2.0 5.0 0.00 0.36 0.36 51 1009.4
20260509175017 76 269 3.0 5.0 0.00 0.36 0.36 52 1009.5
20260509174024 75 266 3.0 3.0 0.00 0.36 0.36 53 1009.6
20260509173024 75 261 3.0 4.0 0.00 0.36 0.36 54 1009.8
20260509172020 74 253 3.0 6.0 0.00 0.36 0.36 55 1009.9
20260509171025 74 267 2.0 5.0 0.00 0.36 0.36 56 1010.0
20260509170105 73 259 3.0 5.0 0.00 0.36 0.36 57 1010.0
20260509165025 72 266 2.0 4.0 0.00 0.36 0.36 60 1010.1
20260509164021 71 270 3.0 6.0 0.00 0.36 0.36 61 1010.1
20260509163025 71 272 2.0 3.0 0.00 0.36 0.36 63 1010.2
20260509162025 70 278 2.0 3.0 0.00 0.36 0.36 68 1010.3
20260509161025 69 277 2.0 3.0 0.00 0.36 0.36 69 1010.2
20260509160025 68 278 2.0 3.0 0.00 0.36 0.36 73 1010.2
20260509155025 67 276 2.0 3.0 0.00 0.36 0.36 74 1010.3
20260509154026 67 277 2.0 3.0 0.00 0.36 0.36 74 1010.3
20260509153026 66 289 2.0 5.0 0.00 0.36 0.36 75 1010.3
20260509152028 65 271 2.0 4.0 0.00 0.36 0.36 79 1010.3
20260509151026 64 296 2.0 4.0 0.00 0.36 0.36 81 1010.2
20260509150026 64 288 1.0 3.0 0.00 0.36 0.36 82 1010.2
20260509145026 63 303 1.0 3.0 0.00 0.36 0.36 83 1010.2
20260509144026 62 319 1.0 2.0 0.00 0.36 0.36 85 1010.2
20260509143107 61 326 1.0 2.0 0.00 0.36 0.36 88 1010.2
20260509142107 61 353 1.0 2.0 0.00 0.36 0.36 89 1010.2
20260509141027 60 327 1.0 3.0 0.00 0.36 0.36 90 1010.1
20260509140027 60 308 2.0 3.0 0.00 0.36 0.36 90 1010.0
20260509135027 60 288 1.0 2.0 0.00 0.36 0.36 91 1010.0
20260509134029 59 349 2.0 3.0 0.00 0.36 0.36 92 1010.1
20260509133027 59 260 2.0 3.0 0.00 0.36 0.36 92 1010.0
20260509132108 59 271 2.0 3.0 0.00 0.36 0.36 93 1009.9
20260509131028 59 271 3.0 3.0 0.00 0.36 0.36 94 1009.9
20260509130028 58 248 3.0 4.0 0.00 0.36 0.36 95 1010.1
20260509125028 58 270 3.0 4.0 0.00 0.36 0.36 96 1010.1
20260509124148 58 266 3.0 4.0 0.00 0.36 0.36 96 1010.3
20260509123029 58 260 3.0 4.0 0.00 0.36 0.36 97 1010.3
20260509122108 58 262 3.0 4.0 0.00 0.36 0.36 97 1010.3
20260509121029 58 264 3.0 4.0 0.00 0.36 0.36 97 1010.2
20260509120108 58 252 3.0 4.0 0.00 0.36 0.36 97 1010.2
20260509115029 58 266 3.0 4.0 0.00 0.36 0.36 97 1010.1
20260509114029 58 251 3.0 4.0 0.00 0.36 0.36 97 1009.9
20260509113028 58 260 3.0 4.0 0.00 0.36 0.36 97 1010.1
20260509112029 58 260 3.0 4.0 0.00 0.36 0.36 97 1010.1
20260509111029 58 266 4.0 4.0 0.00 0.36 0.36 97 1010.1
20260509110030 58 260 3.0 4.0 0.00 0.36 0.36 97 1010.1
20260509105029 58 253 4.0 4.0 0.00 0.36 0.36 97 1010.1
20260509104150 58 252 4.0 4.0 0.00 0.36 0.36 97 1009.9
20260509103016 58 241 4.0 4.0 0.00 0.36 0.36 97 1009.9
20260509102016 58 254 4.0 5.0 0.00 0.36 0.36 97 1009.8
20260509101030 58 243 4.0 4.0 0.00 0.36 0.36 97 1009.7
20260509100030 58 260 4.0 4.0 0.00 0.36 0.36 97 1009.7
20260509095030 58 251 4.0 4.0 0.00 0.36 0.36 97 1009.7
20260509094034 58 250 4.0 5.0 0.00 0.36 0.36 97 1009.7
20260509093030 58 247 4.0 5.0 0.00 0.36 0.36 97 1009.6
20260509092020 58 248 4.0 5.0 0.00 0.36 0.36 97 1009.5
20260509091057 58 253 4.0 5.0 0.00 0.36 0.36 97 1009.4
20260509090017 58 250 4.0 5.0 0.00 0.36 0.36 97 1009.4
20260509085017 58 245 4.0 5.0 0.00 0.36 0.36 97 1009.5
20260509084017 58 245 4.0 5.0 0.00 0.36 0.36 97 1009.5
20260509083057 58 250 4.0 5.0 0.00 0.36 0.36 97 1009.6
20260509082021 58 246 4.0 5.0 0.00 0.36 0.36 97 1009.5
20260509081018 58 249 4.0 5.0 0.00 0.36 0.36 97 1009.4
20260509080101 58 264 4.0 5.0 0.00 0.36 0.36 96 1009.4
20260509075107 58 253 4.0 6.0 0.00 0.36 0.36 96 1009.4
20260509074022 58 256 5.0 5.0 0.00 0.36 0.36 96 1009.3
20260509073021 58 243 5.0 5.0 0.00 0.36 0.36 96 1009.4
20260509072101 58 258 5.0 5.0 0.00 0.36 0.36 96 1009.3
20260509071022 57 245 5.0 5.0 0.00 0.36 0.36 96 1009.2
20260509070018 57 253 4.0 5.0 0.00 0.36 0.36 96 1009.2
20260509065019 57 239 4.0 5.0 0.00 0.36 0.36 95 1009.1
20260509064019 58 237 4.0 4.0 0.00 0.36 0.36 95 1009.1
20260509063019 58 242 4.0 4.0 0.00 0.36 0.36 95 1009.1
20260509062019 58 242 4.0 5.0 0.00 0.36 0.36 95 1009.1
20260509061029 58 239 4.0 5.0 0.00 0.36 0.36 95 1009.2
20260509060019 58 273 4.0 4.0 0.00 0.36 0.36 95 1009.3
20260509055019 58 248 3.0 4.0 0.00 0.36 0.36 95 1009.4
20260509054020 58 250 3.0 4.0 0.00 0.36 0.36 95 1009.4
20260509053020 58 250 3.0 4.0 0.00 0.36 0.36 95 1009.5
20260509052020 58 258 3.0 4.0 0.00 0.36 0.36 95 1009.5
20260509051017 58 303 3.0 4.0 0.02 0.36 0.36 95 1009.5
20260509050017 59 247 3.0 5.0 0.03 0.36 0.36 95 1009.6
20260509045017 59 261 4.0 5.0 0.04 0.36 0.36 94 1009.7
20260509044020 59 266 4.0 6.0 0.08 0.36 0.36 94 1009.7
20260509043021 59 51 1.0 3.0 0.12 0.35 0.35 94 1009.8
20260509042018 59 38 2.0 4.0 0.16 0.35 0.35 94 1009.9
20260509041018 59 255 3.0 5.0 0.19 0.34 0.34 93 1010.2
20260509040018 59 263 3.0 5.0 0.21 0.33 0.33 93 1010.3
20260509035018 59 262 3.0 4.0 0.24 0.31 0.31 93 1010.5
20260509034018 60 341 3.0 5.0 0.24 0.28 0.28 92 1010.7
20260509033018 60 253 2.0 4.0 0.21 0.23 0.23 92 1010.9
20260509032019 60 291 3.0 4.0 0.18 0.19 0.19 91 1010.9
20260509031019 60 288 2.0 4.0 0.14 0.15 0.15 90 1010.8
20260509030019 61 291 2.0 4.0 0.10 0.11 0.11 89 1010.9
20260509025019 61 353 2.0 4.0 0.06 0.07 0.07 88 1010.8
20260509024019 61 347 2.0 3.0 0.03 0.04 0.04 87 1010.7
20260509023019 61 16 1.0 3.0 0.01 0.02 0.02 86 1010.6
20260509022059 61 338 1.0 2.0 0.00 0.01 0.01 85 1010.4
20260509021019 61 298 2.0 2.0 0.00 0.01 0.01 85 1010.3
20260509020019 61 329 1.0 2.0 0.00 0.01 0.01 85 1010.0
20260509015019 61 302 2.0 3.0 0.01 0.01 0.01 84 1009.7
20260509014019 61 322 2.0 3.0 0.01 0.01 0.01 84 1009.4
20260509013019 62 330 2.0 3.0 0.01 0.01 0.01 83 1009.2
20260509012017 63 322 1.0 3.0 0.01 0.01 0.01 81 1009.1
20260509011100 64 355 2.0 3.0 0.01 0.01 0.01 78 1009.2
20260509010020 65 336 2.0 5.0 0.00 0.00 0.00 75 1009.3
20260509005020 67 335 2.0 7.0 0.00 0.00 0.00 71 1008.9
20260509004017 68 294 1.0 4.0 0.00 0.00 0.00 68 1008.7
20260509003017 69 285 2.0 5.0 0.00 0.00 0.00 63 1008.9
20260509002020 69 291 2.0 4.0 0.00 0.00 0.00 60 1008.8
20260509001017 70 272 2.0 4.0 0.00 0.00 0.00 60 1008.7
20260509000021 70 263 3.0 6.0 0.00 0.00 0.00 59 1008.5
20260508235101 71 266 2.0 5.0 0.00 0.00 0.00 58 1008.5
20260508234018 72 275 2.0 4.0 0.00 0.00 0.00 56 1008.4
20260508233018 72 271 2.0 4.0 0.00 0.00 0.00 54 1008.4
20260508232018 73 273 2.0 4.0 0.00 0.00 0.00 53 1008.5